Regional Weather Roundup
Issued by NWS

Home | Current Version | Previous Version | Graphics & Text | Print | Product List | Glossary On
Versions: 1 2 3 4 5 6 7 8 9 10 11 12 13 14 15 16 17 18 19 20 21 22 23 24 25 26 27
000
ASUS45 KCYS 222310
RWRWY

WYOMING REGIONAL WEATHER ROUNDUP
NATIONAL WEATHER SERVICE CHEYENNE WY
500 PM MDT TUE APR 22 2014

NOTE:  "FAIR" INDICATES FEW OR NO CLOUDS BELOW 12,000 FEET
WITH NO SIGNIFICANT WEATHER AND/OR OBSTRUCTIONS TO VISIBILITY.

WYZ001-230000-
YELLOWSTONE NATIONAL PARK

CITY           SKY/WX    TMP DP  RH WIND       PRES   REMARKS
LK YELLOWSTONE   N/A     48  30  49 CALM      29.65F
W YELLOWSTONE  NOT AVBL

$$
WYZ002>013-054>058-071-098>099-230000-
NORTHERN WYOMING

CITY           SKY/WX    TMP DP  RH WIND       PRES   REMARKS
JACKSON        NOT AVBL
CODY           PTSUNNY   66  36  32 S20G28    29.53F
GREYBULL       PTSUNNY   74  32  21 S15G24    29.52F
WORLAND        CLOUDY    70  39  32 S18       29.53F
SHERIDAN         N/A     57  37  47 S14         N/A
BUFFALO        CLOUDY    70  36  28 S14       29.61F
GILLETTE       CLOUDY    71  40  32 S13       29.59F
HULETT         FAIR      73  37  27 S14       29.64
NEWCASTLE      FAIR      66  37  34 SE15G26   29.68

$$
WYZ014>020-022>026-101>103-230000-
CENTRAL WYOMING

CITY           SKY/WX    TMP DP  RH WIND       PRES   REMARKS
BIG PINEY      CLOUDY    62  21  20 S17G28    29.66F
PINEDALE       CLOUDY    59  25  27 S17G30    29.69F
DUBOIS         FAIR      57  27  30 W10G23    29.64F
LANDER         CLOUDY    64  40  41 W10       29.60F
RIVERTON       CLOUDY    64  33  31 SW20G26   29.60F
CASPER         CLOUDY    66  34  30 SW17G25   29.65F
DOUGLAS        CLOUDY    61  45  55 E10       29.70F

$$
WYZ021-027>030-104>119-230000-
SOUTHERN WYOMING

CITY           SKY/WX    TMP DP  RH WIND       PRES   REMARKS
EVANSTON       CLOUDY    64  24  21 S35G46    29.65F
KEMMERER       CLOUDY    61  16  17 SW31G40   29.67F
FORT BRIDGER   MOCLDY    66  22  19 S20G31    29.69F
ROCK SPRINGS   CLOUDY    64  20  18 S26G36    29.67F
DIXON          FAIR      67  22  18 SW25G38   29.80S
RAWLINS        CLOUDY    65  25  22 SW23G37   29.75F
SARATOGA       FAIR      64  27  24 SW28G39   29.79F
LARAMIE        CLOUDY    62  29  28 S22       29.82F
CHEYENNE       CLOUDY    65  32  29 W10       29.80S
TORRINGTON     CLOUDY    72  39  30 W15G24    29.69S
PINE BLUFFS    FAIR      75  30  19 S13G20    29.74F

$$



USA.gov is the U.S. government's official web portal to all federal, state and local government web resources and services.